Location: Corralito
(10.2667°N, 66.9500°W)
Time: 03:21:18
(UTC+00:00)

Cosmos 1331 Rocket - Pass Details

Date: 13 December 2023
Orbit: 748 x 775 km, 74.0° (Epoch: 22 February)

Event Time Altitude Azimuth Distance (km) Brightness Sun altitude
Rises 22:53:03 0° 230° (SW) 3,242 8.8 -11.1°
Reaches altitude 10° 22:56:33 10° 254° (WSW) 2,316 8.0 -11.9°
Maximum altitude 22:59:20 14° 286° (WNW) 2,023 7.0 -12.5°
Drops below altitude 10° 23:02:07 10° 318° (NW) 2,315 6.7 -13.1°
Sets 23:05:38 0° 343° (NNW) 3,240 7.2 -13.9°
